Weather History for Glendive, MT

Change the Weather History Date:

Friday, January 4, 2013

  Actual Average Record
Temperature  
Mean Temperature 16 °F -  
Max Temperature 30 °F 23 °F 55 °F (2012)
Min Temperature 1 °F 6 °F -23 °F (1999)
Degree Days  
Heating Degree Days 50    
Moisture  
Dew Point 9 °F    
Average Humidity 75    
Maximum Humidity 93    
Minimum Humidity 56    
Precipitation  
Precipitation 0.00 in - - ()
Sea Level Pressure  
Sea Level Pressure 30.00 in    
Wind  
Wind Speed 7 mph (SSW)    
Max Wind Speed 22 mph    
Max Gust Speed 25 mph    
Visibility 10 miles    
Events      
Averages and records for this station are not official NWS values.
T = Trace of Precipitation, MM = Missing Value Source: NWS Daily Summary

Daily Weather History Graph

Daily Weather History Graph

Search for Another Location

Airport:

Trip Planner

Search our weather history database for the weather conditions in past years. The results will help you decide how hot, cold, wet, or windy it might be!

Date:

Astronomy

Jan. 04, 2013 Rise Set
Actual Time 7:45 AM MST 4:23 PM MST
Civil Twilight 7:10 AM MST 4:58 PM MST
Nautical Twilight 6:31 AM MST 5:37 PM MST
Astronomical Twilight 5:54 AM MST 6:14 PM MST
Moon No Moon Rise 10:58 AM MST (1/4)
Length of Visible Light 9h 48m
Length of Day
8h 38m
Waning Gibbous, 54% of the Moon is Illuminated
Jan 4
Waning Gibbous
Jan 4
Last Quarter
Jan 11
New
Jan 18
First Quarter
Jan 26
Full

Hourly Weather History & Observations

Time (MST) Temp. Windchill Dew Point Humidity Pressure Visibility Wind Dir Wind Speed Gust Speed Precip Events Conditions
12:15 AM 10.4 °F -0.4 °F 6.8 °F 85% 30.05 in 10.0 mi SSW 6.9 mph - N/A   Clear
12:35 AM 10.4 °F -0.4 °F 3.2 °F 73% 30.05 in 10.0 mi SSW 6.9 mph - N/A   Clear
12:55 AM 10.4 °F 0.8 °F 1.4 °F 67% 30.04 in 10.0 mi South 5.8 mph - N/A   Clear
1:15 AM 8.6 °F -2.6 °F 3.2 °F 79% 30.04 in 10.0 mi SSW 6.9 mph - N/A   Clear
1:35 AM 8.6 °F -2.6 °F 3.2 °F 79% 30.04 in 10.0 mi South 6.9 mph - N/A   Clear
1:55 AM 8.6 °F -1.3 °F 5.0 °F 85% 30.04 in 10.0 mi South 5.8 mph - N/A   Clear
2:15 AM 8.6 °F 0.1 °F 6.8 °F 92% 30.04 in 10.0 mi South 4.6 mph - N/A   Clear
2:35 AM 8.6 °F 0.1 °F 3.2 °F 79% 30.04 in 10.0 mi South 4.6 mph - N/A   Clear
2:55 AM 8.6 °F -2.6 °F 3.2 °F 79% 30.04 in 10.0 mi South 6.9 mph - N/A   Clear
3:15 AM 6.8 °F -4.8 °F 1.4 °F 79% 30.04 in 10.0 mi SSW 6.9 mph - N/A   Clear
3:35 AM 8.6 °F -2.6 °F 3.2 °F 79% 30.03 in 10.0 mi South 6.9 mph - N/A   Clear
4:15 AM 6.8 °F -4.8 °F -0.4 °F 72% 30.03 in 10.0 mi South 6.9 mph - N/A   Clear
4:35 AM 6.8 °F -4.8 °F -0.4 °F 72% 30.03 in 10.0 mi South 6.9 mph - N/A   Clear
4:55 AM 6.8 °F -2.0 °F 1.4 °F 79% 30.03 in 10.0 mi SSW 4.6 mph - N/A   Clear
5:15 AM 6.8 °F -3.5 °F -0.4 °F 72% 30.03 in 10.0 mi SSW 5.8 mph - N/A   Clear
5:35 AM 6.8 °F -4.8 °F 3.2 °F 85% 30.03 in 10.0 mi South 6.9 mph - N/A   Clear
5:55 AM 6.8 °F -4.8 °F 1.4 °F 79% 30.02 in 10.0 mi South 6.9 mph - N/A   Clear
6:15 AM 5.0 °F -5.6 °F -4.0 °F 66% 30.03 in 10.0 mi SSW 5.8 mph - N/A   Clear
6:35 AM 3.2 °F -11.3 °F -9.4 °F 56% 30.02 in 10.0 mi South 9.2 mph - N/A   Clear
7:15 AM 1.4 °F -11.3 °F -5.8 °F 72% 30.02 in 10.0 mi SSW 6.9 mph - N/A   Clear
7:35 AM 5.0 °F -6.9 °F 3.2 °F 92% 30.02 in 10.0 mi SSW 6.9 mph - N/A   Clear
7:55 AM 5.0 °F -6.9 °F 3.2 °F 92% 30.01 in 10.0 mi South 6.9 mph - N/A   Clear
8:15 AM 6.8 °F -2.0 °F -0.4 °F 72% 30.02 in 10.0 mi SSW 4.6 mph - N/A   Clear
8:35 AM 6.8 °F -4.8 °F -0.4 °F 72% 30.02 in 10.0 mi SSW 6.9 mph - N/A   Clear
8:55 AM 8.6 °F -2.6 °F 3.2 °F 79% 30.02 in 10.0 mi SSW 6.9 mph - N/A   Clear
9:35 AM 8.6 °F -6.3 °F 1.4 °F 73% 30.01 in 10.0 mi South 11.5 mph - N/A   Clear
9:55 AM 10.4 °F -1.5 °F 3.2 °F 73% 30.02 in 10.0 mi SSW 8.1 mph - N/A   Clear
10:15 AM 10.4 °F -3.3 °F 3.2 °F 73% 30.02 in 10.0 mi South 10.4 mph - N/A   Clear
10:35 AM 14.0 °F 1.2 °F 6.8 °F 73% 30.02 in 10.0 mi South 10.4 mph - N/A   Clear
10:55 AM 17.6 °F 5.7 °F 10.4 °F 73% 30.02 in 10.0 mi South 10.4 mph - N/A   Clear
11:35 AM 17.6 °F 5.7 °F 10.4 °F 73% 30.01 in 10.0 mi South 10.4 mph - N/A   Clear
11:55 AM 19.4 °F 7.9 °F 10.4 °F 68% 30.00 in 10.0 mi South 10.4 mph - N/A   Clear
12:15 PM 19.4 °F 9.5 °F 12.2 °F 74% 29.99 in 10.0 mi SSE 8.1 mph - N/A   Clear
12:35 PM 21.2 °F 11.7 °F 12.2 °F 68% 29.99 in 10.0 mi South 8.1 mph - N/A   Clear
12:55 PM 21.2 °F 12.6 °F 12.2 °F 68% - 10.0 mi SSE 6.9 mph - N/A   Clear
1:15 PM 21.2 °F 12.6 °F 12.2 °F 68% - 10.0 mi SSE 6.9 mph - N/A   Clear
1:35 PM 21.2 °F 11.7 °F 12.2 °F 68% - 10.0 mi SSE 8.1 mph - N/A   Clear
1:55 PM 23.0 °F 17.0 °F 14.0 °F 68% 29.98 in 10.0 mi SSE 4.6 mph - N/A   Clear
2:15 PM 23.0 °F 13.1 °F 15.8 °F 74% 29.97 in 10.0 mi South 9.2 mph - N/A   Clear
2:55 PM 24.8 °F 16.1 °F 15.8 °F 69% 29.98 in 10.0 mi SSE 8.1 mph - N/A   Clear
3:15 PM 24.8 °F 19.1 °F 15.8 °F 69% 29.98 in 10.0 mi South 4.6 mph - N/A   Clear
3:35 PM 23.0 °F 14.7 °F 14.0 °F 68% 29.98 in 10.0 mi South 6.9 mph - N/A   Clear
3:55 PM 21.2 °F 16.4 °F 12.2 °F 68% 29.98 in 10.0 mi SSE 3.5 mph - N/A   Clear
4:15 PM 21.2 °F 11.7 °F 14.0 °F 74% 29.98 in 10.0 mi SSW 8.1 mph - N/A   Clear
4:35 PM 21.2 °F 10.9 °F 14.0 °F 74% 29.98 in 10.0 mi SSW 9.2 mph - N/A   Clear
4:55 PM 21.2 °F 10.1 °F 15.8 °F 80% 29.98 in 10.0 mi South 10.4 mph - N/A   Clear
5:15 PM 19.4 °F 7.9 °F 12.2 °F 74% 29.98 in 10.0 mi SSW 10.4 mph - N/A   Clear
5:35 PM 19.4 °F 8.6 °F 12.2 °F 74% 29.98 in 10.0 mi South 9.2 mph - N/A   Clear
6:15 PM 19.4 °F 9.5 °F 12.2 °F 74% 29.97 in 10.0 mi SSW 8.1 mph - N/A   Clear
6:35 PM 17.6 °F 9.3 °F 12.2 °F 79% 29.97 in 10.0 mi SSW 5.8 mph - N/A   Clear
6:55 PM 19.4 °F 12.8 °F 12.2 °F 74% 29.97 in 10.0 mi West 4.6 mph - N/A   Clear
7:15 PM 21.2 °F 10.1 °F 19.4 °F 93% 29.97 in 10.0 mi WSW 10.4 mph - N/A   Clear
7:55 PM 21.2 °F 12.6 °F 12.2 °F 68% 29.96 in 10.0 mi SW 6.9 mph - N/A   Clear
8:15 PM 21.2 °F 11.7 °F 12.2 °F 68% 29.95 in 10.0 mi SW 8.1 mph - N/A   Clear
8:35 PM 23.0 °F 13.1 °F 15.8 °F 74% 29.95 in 10.0 mi SW 9.2 mph - N/A   Clear
8:55 PM 21.2 °F 10.9 °F 15.8 °F 80% 29.95 in 10.0 mi SW 9.2 mph - N/A   Clear
9:15 PM 23.0 °F 14.7 °F 17.6 °F 80% 29.95 in 10.0 mi SW 6.9 mph - N/A   Clear
9:35 PM 24.8 °F 16.1 °F 19.4 °F 80% 29.95 in 10.0 mi SW 8.1 mph - N/A   Clear
9:55 PM 26.6 °F 18.2 °F 19.4 °F 74% 29.95 in 10.0 mi SSW 8.1 mph - N/A   Clear
10:15 PM 24.8 °F 16.9 °F 17.6 °F 74% 29.95 in 10.0 mi SW 6.9 mph - N/A   Clear
10:35 PM 28.4 °F 22.2 °F 19.4 °F 69% 29.95 in 10.0 mi West 5.8 mph - N/A   Clear
10:55 PM 26.6 °F 21.2 °F 17.6 °F 69% 29.95 in 10.0 mi West 4.6 mph - N/A   Clear
11:15 PM 28.4 °F 17.0 °F 21.2 °F 74% 29.94 in 10.0 mi West 15.0 mph - N/A   Clear
11:35 PM 30.2 °F 18.9 °F 23.0 °F 75% 29.95 in 10.0 mi WNW 16.1 mph - N/A   Clear
11:55 PM 30.2 °F 17.1 °F 23.0 °F 75% 29.95 in 10.0 mi WNW 21.9 mph 25.3 mph N/A   Clear